Location: Vihti�l�
(61.3833°N, 23.0667°E)
Time: 05:35:08
(UTC+00:00)

Okean 3 Rocket - Pass Details

Date: 29 November 2020
Orbit: 615 x 645 km, 82.5° (Epoch: 22 January)

Event Time Altitude Azimuth Distance (km) Brightness Sun altitude
Exits shadow 03:29:47 49° 181° (S) 805 4.0 -24.3°
Maximum altitude 03:30:56 81° 102° (ESE) 640 3.6 -24.2°
Drops below altitude 10° 03:35:24 10° 16° (NNE) 2,018 6.3 -23.6°
Sets 03:37:40 0° 16° (NNE) 2,934 7.2 -23.4°
